TimeCET,TemperatureF,Dew PointF,Humidity,Sea Level PressureIn,VisibilityMPH,Wind Direction,Wind SpeedMPH,Gust SpeedMPH,PrecipitationIn,Events,Conditions,WindDirDegrees,DateUTC
1:00 AM,46,43,87,30.20,13,NNE,4.5,,,,Clear,30,2012-11-12 00:00:00
2:00 AM,46,44,88,30.22,10,NE,4.5,,,,Overcast,40,2012-11-12 01:00:00
3:00 AM,46,44,89,30.23,7,East,2.2,,,,Overcast,80,2012-11-12 02:00:00
4:00 AM,45,43,91,30.23,7,NNE,4.5,,,,Overcast,20,2012-11-12 03:00:00
5:00 AM,45,43,92,30.25,6,ENE,2.2,,,,Overcast,70,2012-11-12 04:00:00
6:00 AM,45,44,94,30.26,7,North,4.5,,,,Partly Cloudy,350,2012-11-12 05:00:00
7:00 AM,45,44,93,30.26,7,ENE,4.5,,,,Overcast,60,2012-11-12 06:00:00
7:50 AM,44.6,44.6,100,30.24,6.2,North,4.6,-,N/A,,Mostly Cloudy,10,2012-11-12 06:50:00
8:00 AM,45,43,90,30.29,12,North,4.5,,,,Overcast,10,2012-11-12 07:00:00
8:20 AM,44.6,42.8,93,30.27,6.2,North,5.8,-,N/A,,Mostly Cloudy,10,2012-11-12 07:20:00
8:50 AM,44.6,44.6,100,30.27,6.2,NNE,4.6,-,N/A,,Mostly Cloudy,30,2012-11-12 07:50:00
9:00 AM,45,43,90,30.32,12,NE,4.5,,,,Overcast,40,2012-11-12 08:00:00
9:20 AM,44.6,42.8,93,30.30,6.2,NE,4.6,-,N/A,,Mostly Cloudy,40,2012-11-12 08:20:00
9:50 AM,46.4,42.8,87,30.30,6.2,NNE,5.8,-,N/A,,Mostly Cloudy,20,2012-11-12 08:50:00
10:00 AM,46,43,84,30.32,12,NNE,6.7,,,,Overcast,30,2012-11-12 09:00:00
10:20 AM,46.4,42.8,87,30.30,6.2,North,6.9,-,N/A,,Mostly Cloudy,10,2012-11-12 09:20:00
10:50 AM,46.4,42.8,87,30.30,6.2,NE,4.6,-,N/A,,Mostly Cloudy,40,2012-11-12 09:50:00
11:00 AM,47,43,79,30.35,12,NE,4.5,,,,Mostly Cloudy,40,2012-11-12 10:00:00
11:20 AM,46.4,42.8,87,30.33,6.2,NNE,4.6,-,N/A,,Mostly Cloudy,30,2012-11-12 10:20:00
11:50 AM,46.4,42.8,87,30.30,6.2,NE,4.6,-,N/A,,Mostly Cloudy,50,2012-11-12 10:50:00
12:00 PM,47,43,80,30.34,12,ENE,6.7,,,,Mostly Cloudy,60,2012-11-12 11:00:00
12:20 PM,48.2,41.0,76,30.30,6.2,North,4.6,-,N/A,,Scattered Clouds,10,2012-11-12 11:20:00
12:50 PM,48.2,41.0,76,30.30,6.2,NE,3.5,-,N/A,,Scattered Clouds,40,2012-11-12 11:50:00
1:00 PM,50,42,66,30.34,12,NE,2.2,,,,Partly Cloudy,50,2012-11-12 12:00:00
1:20 PM,48.2,39.2,71,30.30,6.2,North,5.8,-,N/A,,Scattered Clouds,360,2012-11-12 12:20:00
1:50 PM,48.2,41.0,76,30.30,6.2,East,2.3,-,N/A,,Scattered Clouds,80,2012-11-12 12:50:00
2:00 PM,49,41,66,30.34,16,ENE,4.5,,,,Mostly Cloudy,70,2012-11-12 13:00:00
2:20 PM,50.0,41.0,71,30.30,6.2,NE,3.5,-,N/A,,Scattered Clouds,40,2012-11-12 13:20:00
2:50 PM,48.2,41.0,76,30.30,6.2,North,8.1,-,N/A,,Scattered Clouds,10,2012-11-12 13:50:00
3:00 PM,49,40,64,30.34,16,NNE,6.7,,,,Scattered Clouds,20,2012-11-12 14:00:00
3:20 PM,48.2,39.2,71,30.33,6.2,North,5.8,-,N/A,,Partly Cloudy,360,2012-11-12 14:20:00
3:50 PM,48.2,41.0,76,30.33,6.2,North,5.8,-,N/A,,Partly Cloudy,10,2012-11-12 14:50:00
4:00 PM,48,40,66,30.36,16,NNE,6.7,,,,Scattered Clouds,20,2012-11-12 15:00:00
4:20 PM,44.6,39.2,81,30.33,6.2,North,8.1,-,N/A,,Partly Cloudy,10,2012-11-12 15:20:00
4:50 PM,42.8,37.4,81,30.36,6.2,NNE,6.9,-,N/A,,Partly Cloudy,20,2012-11-12 15:50:00
5:00 PM,43,38,76,30.39,19,NNE,6.7,,,,Scattered Clouds,20,2012-11-12 16:00:00
5:20 PM,41.0,35.6,81,30.36,6.2,NNE,3.5,-,N/A,,Partly Cloudy,20,2012-11-12 16:20:00
5:50 PM,41.0,37.4,87,30.36,6.2,North,4.6,-,N/A,,Partly Cloudy,360,2012-11-12 16:50:00
6:20 PM,39.2,35.6,87,30.36,6.2,Variable,1.2,-,N/A,,Partly Cloudy,0,2012-11-12 17:20:00
6:50 PM,39.2,37.4,93,30.39,6.2,ENE,3.5,-,N/A,,Partly Cloudy,60,2012-11-12 17:50:00
7:00 PM,38,36,90,30.42,7,ENE,4.5,,,,,60,2012-11-12 18:00:00
7:20 PM,39.2,37.4,93,30.39,6.2,Variable,1.2,-,N/A,,Partly Cloudy,0,2012-11-12 18:20:00
8:00 PM,37,35,91,30.44,6,NNE,2.2,,,,,20,2012-11-12 19:00:00
9:00 PM,36,35,93,30.44,4,Calm,Calm,,,,Mist,,2012-11-12 20:00:00
10:00 PM,34,33,95,30.46,2,SSW,2.2,,,,Mist,200,2012-11-12 21:00:00
11:00 PM,34,33,97,30.46,0,Calm,Calm,,,Fog,Fog,,2012-11-12 22:00:00